Preview of NWS' New Version of Forecast
This preview is not operational and should not be used for support decisions.

Regional Weather Roundup (RWR)

Issued by National Weather Service (NWS)

                            
000
ASUS42 KTBW 220718
RWRFL 
FLORIDA REGIONAL WEATHER ROUNDUP
NATIONAL WEATHER SERVICE TAMPA BAY RUSKIN FL
300 AM EDT THU AUG 22 2019

NOTE: "FAIR" INDICATES FEW OR NO CLOUDS BELOW 12,000 FEET WITH NO
SIGNIFICANT WEATHER AND/OR OBSTRUCTIONS TO VISIBILITY.

FLZ001>010-012>015-112-114-115-220800-
PANHANDLE FLORIDA
  
CITY           SKY/WX    TMP DP  RH WIND       PRES   REMARKS
PENSACOLA      MOCLDY    80  80 100 NE5       30.01F                  
PENSACOLA NAS  FAIR      82  77  84 SE6       30.01F                  
MILTON NAS     MOCLDY    74  74 100 CALM      30.03F                  
CRESTVIEW      FAIR      73  72  96 CALM      30.04F                  
DUKE FIELD     FAIR      75  75 100 CALM      30.02F                  
VALPARAISO     FAIR      77  75  93 CALM      30.02F                  
MARY ESTHER    MOCLDY    82  75  79 S3        30.01S                  
TRI COUNTY     FAIR      73  71  93 CALM      30.05F                  
PANAMA CITY    FAIR      75  72  90 CALM      30.02F                  
TYNDALL AFB    FAIR      75  73  93 E3        30.02F                  
APALACHICOLA   FAIR      76  74  93 E3        30.02F                  

STATION/POSITION SKY/WX   TEMP    WIND        PRES    WAVE   SWELL
                          AIR SEA DIR/SP/G            HT/PER HT/PER
                          (F)     (DEG/KT/KT) (MB)    (FT/S) (FT/S)
30.1N   87.6W              84 86  170/ 10/ 12 1016.1F   2/ 6   2/ 6
29.2N   88.2W              84 85  160/ 10/ 14 1016.2F   2/ 6   2/ 6
28.8N   86.0W                     160/ 10/ 12 1016.5F   2/ 5   2/ 5
PANAMA CITY BEAC           79 87   70/  8/ 10 1017.4
TOWER C                    83     150/  7/  7 1017.1F
28.5N   84.5W              83     130/  8/ 10 1017.3F   1/ 5   2/ 5

$$
FLZ011-016>038-118-127-128-134-139-239-220800-
NORTH FLORIDA
  
CITY           SKY/WX    TMP DP  RH WIND       PRES   REMARKS
MARIANNA       FAIR      73  73 100 NE3       30.04S                  
TALLAHASSEE    FAIR      76  76 100 CALM      30.04F                  
PERRY          FAIR      75  74  97 CALM      30.05F                  
LIVE OAK       PTCLDY    75  75 100 CALM      30.06S                  
CROSS CITY     FAIR      77  74  92 CALM      30.05S                  
LAKE CITY      FAIR      73  73 100 CALM      30.06F                  
GAINESVILLE    FAIR      75  73  93 E3        30.07F                  
WILLISTON      FAIR      74  73  99 CALM      30.06R                  
MAYPORT NAS    FAIR      79  76  90 CALM      30.05F                  
JACKSONVILLE   FAIR      76  74  93 CALM      30.05S                  
JAX NAS        FAIR      82  74  76 S7        30.06F                  
JAX CECIL      FAIR      73  72  94 CALM      30.05F FOG              
FERNANDINA BEA FAIR      78  77  95 MISG      30.06S                  
ST AUGUSTINE   FAIR      77  75  93 CALM      30.07S                  
PALM COAST     FAIR      75  74  95 CALM      30.05F                  

STATION/POSITION SKY/WX   TEMP    WIND        PRES    WAVE   SWELL
                          AIR SEA DIR/SP/G            HT/PER HT/PER
                          (F)     (DEG/KT/KT) (MB)    (FT/S) (FT/S)
SHELL POINT      NOT AVBL
KEATON BEACH               76      40/  2/  3 1017.4F
CEDAR KEY                  82     140/ 10/ 12 1017.4F
FERNANDINA                 84 83              1018.6
30.7N   81.3W                 83                N/A     2/11
MAYPORT                    80 83  200/  2/  3 1018.3
31.4N   80.9W              82 82  210/  6/  8 1017.7F   2/11   2/11
ST AUGUSTINE               82 82  180/  7/  9 1017.7F

$$
FLZ040-043>046-052-053-057-058-063-144-220800-
INTERIOR CENTRAL FLORIDA
  
CITY           SKY/WX    TMP DP  RH WIND       PRES   REMARKS
OCALA          FAIR      77  75  93 SE3       30.06F                  
LEESBURG       FAIR      80  74  81 E7        30.06F                  
SANFORD        FAIR      79  76  90 SE3       30.04F                  
ORLANDO EXEC   FAIR      78  74  87 CALM      30.05F                  
ORLANDO INTL   FAIR      78  75  90 CALM      30.05F                  
KISSIMMEE      FAIR      79  76  90 CALM      30.06F                  
WINTER HAVEN   FAIR      80  75  84 E5        30.06F                  
SEBRING        FAIR      77  76  94 E5        30.04F                  
OKEECHOBEE     FAIR      73  73 100 CALM      30.03F                  

$$
FLZ041-047-054-059-064-141-147-220800-
EAST CENTRAL FLORIDA
  
CITY           SKY/WX    TMP DP  RH WIND       PRES   REMARKS
DAYTONA BEACH  FAIR      78  76  93 CALM      30.05F                  
DELAND         FAIR      75  73  94 CALM      30.05F                  
JFK SPACE CTR  FAIR      79  57  46 SE5       30.03F                  
CAPE CANAVERAL FAIR      78  78  99 CALM      30.03F                  
PATRICK AFB    FAIR      82  79  91 SE7       30.04F                  
MELBOURNE      FAIR      83  75  77 SE8       30.03F                  
VERO BEACH     FAIR      80  74  81 E3        30.03F                  
FT PIERCE      FAIR      81  74  79 SE7       30.03F                  
STUART         FAIR      79  73  83 SE5       30.04F                  

STATION/POSITION SKY/WX   TEMP    WIND        PRES    WAVE   SWELL
                          AIR SEA DIR/SP/G            HT/PER HT/PER
                          (F)     (DEG/KT/KT) (MB)    (FT/S) (FT/S)
28.5N   80.2W              83 84  130/ 12/ 14 1017.2F   2/11   2/11
28.9N   78.5W              84 86  120/ 12/ 14 1017.9F   2/10   2/10
TRIDENT PIER               81 83  120/  5/  7 1018.9
28.4N   80.5W                 82                N/A     2/ 3
27.5N   80.2W                 83                N/A     2/ 4

$$
FLZ050-056-061-142-242-148-248-149-249-151-251-155-255-
160-260-220800-
WEST CENTRAL FLORIDA
  
CITY           SKY/WX    TMP DP  RH WIND       PRES   REMARKS
CRYSTAL RIVER  FAIR      75  73  94 CALM      30.05F                  
INVERNESS      FAIR      75  75 100 CALM      30.06S                  
BROOKSVILLE    FAIR      76  74  93 E3        30.06S                  
CLEARWATER AIR FAIR      77  73  88 CALM      30.04S                  
ST PETE CLEARW FAIR      79  75  87 SE3       30.04F                  
TAMPA INTL     MOCLDY    80  75  84 CALM      30.05F                  
PLANT CITY     FAIR      79  77  94 CALM      30.07S                  
MACDILL AFB    FAIR      78  73  85 E3        30.04S                  
PETER O KNIGHT CLOUDY    81  81 100 E3        30.05F                  
ST PETERSBURG  FAIR      81  75  82 E5        30.03S                  
SARASOTA       FAIR      77  76  96 CALM      30.02F                  
VENICE         FAIR      77  77 100 NE6       30.04F                  

STATION/POSITION SKY/WX   TEMP    WIND        PRES    WAVE   SWELL
                          AIR SEA DIR/SP/G            HT/PER HT/PER
                          (F)     (DEG/KT/KT) (MB)    (FT/S) (FT/S)
27.3N   84.2W                 85                N/A     2/ 7
CLEARWATER BEACH           81 88   20/  3/  3 1017.7
MIDDLE TAMPA BAY           80     120/  5/  6 1017.6
VENICE                     77 86   60/  4/  5 1016.8F

$$
FLZ066-069-070-075>078-162-262-165-265-220800-
SOUTHWEST FLORIDA AND KEYS
  
CITY           SKY/WX    TMP DP  RH WIND       PRES   REMARKS
PUNTA GORDA    FAIR      76  76 100 CALM      30.05F                  
FT MYERS       FAIR      77  74  90 E3        30.02F                  
SOUTHWEST INTL FAIR      78  75  90 E3        30.03F                  
NAPLES         FAIR      79  76  90 CALM      30.03F                  
MARCO ISLAND   FAIR     N/A N/A N/A CALM        N/A                   
IMMOKALEE      FAIR      77  75  94 CALM      30.01F                  
MARATHON       FAIR      83  74  74 NE7       30.00F                  
KEY WEST NAS   FAIR      84  75  74 N5        30.01F                  
KEY WEST INTL  FAIR      82  75  79 N5        30.02F                  

STATION/POSITION SKY/WX   TEMP    WIND        PRES    WAVE   SWELL
                          AIR SEA DIR/SP/G            HT/PER HT/PER
                          (F)     (DEG/KT/KT) (MB)    (FT/S) (FT/S)
NAPLES                     79 88              1017.2
26.0N   85.6W              83 86  170/  4/  4 1016.5F   2/ 7   2/ 7
DRY TORTUGAS               84     150/  1/  1 1016.8F
SAND KEY                   80     290/ 11/ 16 1015.6F
SOMBRERO KEY               84     100/  4/  6 1016.4F
LONG KEY                   84                 1015.3F

$$
FLZ067-068-071>074-168-172>174-220800-
SOUTHEAST FLORIDA 
  
CITY           SKY/WX    TMP DP  RH WIND       PRES   REMARKS
W PALM BEACH   FAIR      83  72  69 E9        30.03F                  
FT LAUDER-EXEC FAIR      81  73  76 E7        30.01F                  
FT LAUDERDALE  MOCLDY    82  73  74 E12       30.00F                  
POMPANO BEACH  FAIR      83  72  69 E9        30.01F                  
PEMBROKE PINES FAIR      82  73  74 E5        30.03F                  
OPA LOCKA      FAIR      82  73  74 CALM      30.02F                  
MIAMI          FAIR      83  72  69 CALM      30.01F                  
WEST KENDALL   FAIR      77  74  90 CALM      30.01F                  
HOMESTEAD      FAIR      79  73  83 CALM      30.00F                  

STATION/POSITION SKY/WX   TEMP    WIND        PRES    WAVE   SWELL
                          AIR SEA DIR/SP/G            HT/PER HT/PER
                          (F)     (DEG/KT/KT) (MB)    (FT/S) (FT/S)
VIRGINIA KEY               84 88   50/  8/ 10 1016.0
LAKE WORTH                 83 86   90/ 10/ 12 1017.9
FOWEY ROCKS                83 86   70/ 11/ 11 1016.2F
SETTLEMENT POINT           82     100/ 15/ 18 1016.7F

$$